This is the latest recevied weather packets stored in our database for station/object WD9U. If no packets are shown the sender has not sent any weather packets the latest 10 day(s).
| Time | Temp. | Humidity | Pressure | Rain* | Wind** | Luminosity | Snow |
|---|---|---|---|---|---|---|---|
| 1778002991 | 4.44° C | 47% | 1010.4 hPa | 0 mm | - | 445 W/m² | - |
| 1778002631 | 4.44° C | 47% | 1010.3 hPa | 0 mm | - | 452 W/m² | - |
| 1778002271 | 4.44° C | 47% | 1010.3 hPa | 0 mm | - | 432 W/m² | - |
| 1778001911 | 4.44° C | 47% | 1010.4 hPa | 0 mm | - | 428 W/m² | - |
| 1778001551 | 3.89° C | 48% | 1010.3 hPa | 0 mm | - | 546 W/m² | - |
| 1778001191 | 3.89° C | 48% | 1010.4 hPa | 0 mm | - | 362 W/m² | - |
| 1778000831 | 3.33° C | 47% | 1010.3 hPa | 0 mm | - | 372 W/m² | - |
| 1778000713 | 3.33° C | 48% | 1010.3 hPa | 0 mm | - | 328 W/m² | - |
| 1778000471 | 3.33° C | 49% | 1010.4 hPa | 0 mm | - | 356 W/m² | - |
| 1778000111 | 3.33° C | 49% | 1010.4 hPa | 0 mm | - | 269 W/m² | - |
| 1777999751 | 3.33° C | 48% | 1010.3 hPa | 0 mm | - | 274 W/m² | - |
| 1777999513 | 3.33° C | 50% | 1010.3 hPa | 0 mm | - | 276 W/m² | - |
| 1777999391 | 3.33° C | 49% | 1010.3 hPa | 0 mm | - | 310 W/m² | - |
| 1777999031 | 3.33° C | 49% | 1010.3 hPa | 0 mm | - | 269 W/m² | - |
| 1777998671 | 2.78° C | 50% | 1010.1 hPa | 0 mm | - | 355 W/m² | - |
| 1777998311 | 2.78° C | 48% | 1010 hPa | 0 mm | - | 320 W/m² | - |
| 1777997951 | 2.78° C | 49% | 1010.1 hPa | 0 mm | - | 258 W/m² | - |
| 1777997591 | 2.78° C | 48% | 1009.9 hPa | 0 mm | - | 246 W/m² | - |
| 1777997230 | 2.22° C | 49% | 1009.9 hPa | 0 mm | - | 237 W/m² | - |
| 1777997112 | 2.22° C | 49% | 1009.9 hPa | 0 mm | - | 200 W/m² | - |
| 1777996870 | 2.22° C | 49% | 1009.9 hPa | 0 mm | - | 212 W/m² | - |
| 1777996510 | 2.22° C | 50% | 1009.9 hPa | 0 mm | - | 184 W/m² | - |
| 1777996149 | 2.22° C | 52% | 1009.9 hPa | 0 mm | - | 162 W/m² | - |
| 1777995911 | 2.22° C | 49% | 1009.9 hPa | 0 mm | - | 157 W/m² | - |
| 1777995788 | 2.22° C | 50% | 1009.9 hPa | 0 mm | - | 156 W/m² | - |
* Rain latest hour (hover to see other rain measurements)
** Current wind speed in m/s (hover to see current wind gust speed)